| time (UTC) | temp F | wind direction | speed MPH | gust MPH | rain 1hr in | rain 24hr in | rain mn in | humidity % | barometer mb |
| 20260507180129 | 62 | 48 | 4.0 | 10.0 | 0.00 | 0.00 | 0.00 | 79 | 1018.2 |
| 20260507175630 | 62 | 50 | 3.0 | 10.0 | 0.00 | 0.00 | 0.00 | 79 | 1018.3 |
| 20260507175400 | 62 | 51 | 3.0 | 9.0 | 0.00 | 0.00 | 0.00 | 79 | 1018.4 |
| 20260507174630 | 62 | 71 | 3.0 | 9.0 | 0.00 | 0.00 | 0.00 | 79 | 1018.5 |
| 20260507174126 | 62 | 50 | 4.0 | 14.0 | 0.00 | 0.00 | 0.00 | 79 | 1018.7 |
| 20260507173626 | 62 | 67 | 4.0 | 14.0 | 0.00 | 0.00 | 0.00 | 78 | 1018.5 |
| 20260507173126 | 63 | 54 | 4.0 | 11.0 | 0.00 | 0.00 | 0.00 | 78 | 1018.6 |
| 20260507172856 | 63 | 38 | 4.0 | 11.0 | 0.00 | 0.00 | 0.00 | 78 | 1018.6 |
| 20260507172126 | 64 | 59 | 4.0 | 11.0 | 0.00 | 0.00 | 0.00 | 78 | 1018.4 |
| 20260507171126 | 63 | 82 | 4.0 | 13.0 | 0.00 | 0.00 | 0.00 | 78 | 1017.9 |
| 20260507170625 | 63 | 74 | 4.0 | 16.0 | 0.00 | 0.00 | 0.00 | 80 | 1018.2 |
| 20260507170125 | 62 | 86 | 4.0 | 16.0 | 0.00 | 0.00 | 0.00 | 80 | 1018.1 |
| 20260507165626 | 62 | 103 | 4.0 | 12.0 | 0.00 | 0.00 | 0.00 | 81 | 1018.2 |
| 20260507164854 | 61 | 67 | 4.0 | 13.0 | 0.00 | 0.00 | 0.00 | 81 | 1018.6 |
| 20260507164123 | 61 | 51 | 5.0 | 13.0 | 0.00 | 0.00 | 0.00 | 82 | 1018.5 |
| 20260507163624 | 61 | 88 | 5.0 | 13.0 | 0.00 | 0.00 | 0.00 | 82 | 1018.4 |
| 20260507163123 | 61 | 40 | 4.0 | 15.0 | 0.00 | 0.00 | 0.00 | 83 | 1018.3 |
| 20260507162621 | 60 | 40 | 3.0 | 15.0 | 0.00 | 0.00 | 0.00 | 83 | 1018.4 |
| 20260507162352 | 60 | 74 | 3.0 | 11.0 | 0.00 | 0.00 | 0.00 | 83 | 1018.6 |
| 20260507161622 | 60 | 41 | 4.0 | 11.0 | 0.00 | 0.00 | 0.00 | 84 | 1018.5 |
| 20260507161120 | 60 | 46 | 4.0 | 11.0 | 0.00 | 0.00 | 0.00 | 83 | 1018.3 |
| 20260507160620 | 60 | 28 | 4.0 | 13.0 | 0.00 | 0.00 | 0.00 | 83 | 1017.9 |
| 20260507160119 | 60 | 89 | 5.0 | 15.0 | 0.00 | 0.00 | 0.00 | 83 | 1018.2 |
| 20260507155617 | 60 | 59 | 6.0 | 15.0 | 0.00 | 0.00 | 0.00 | 83 | 1018.4 |
| 20260507155118 | 60 | 56 | 4.0 | 14.0 | 0.00 | 0.00 | 0.00 | 84 | 1018.4 |
| 20260507154617 | 60 | 55 | 4.0 | 11.0 | 0.00 | 0.00 | 0.00 | 84 | 1018.1 |
| 20260507154119 | 60 | 61 | 4.0 | 11.0 | 0.00 | 0.00 | 0.00 | 84 | 1018.2 |
| 20260507153611 | 59 | 60 | 4.0 | 13.0 | 0.00 | 0.00 | 0.00 | 85 | 1017.9 |
| 20260507153111 | 59 | 93 | 5.0 | 14.0 | 0.00 | 0.00 | 0.00 | 85 | 1017.8 |
| 20260507152612 | 59 | 24 | 5.0 | 14.0 | 0.00 | 0.00 | 0.00 | 84 | 1017.6 |
| 20260507152112 | 59 | 74 | 4.0 | 11.0 | 0.00 | 0.00 | 0.00 | 85 | 1017.7 |
| 20260507151611 | 59 | 33 | 5.0 | 11.0 | 0.00 | 0.00 | 0.00 | 85 | 1017.7 |
| 20260507151111 | 59 | 49 | 5.0 | 20.0 | 0.00 | 0.00 | 0.00 | 85 | 1017.7 |
| 20260507150611 | 59 | 40 | 5.0 | 20.0 | 0.00 | 0.00 | 0.00 | 84 | 1017.7 |
| 20260507150111 | 59 | 104 | 5.0 | 13.0 | 0.00 | 0.00 | 0.00 | 85 | 1017.5 |
| 20260507145612 | 59 | 80 | 5.0 | 13.0 | 0.00 | 0.00 | 0.00 | 85 | 1017.6 |
| 20260507145111 | 59 | 44 | 5.0 | 14.0 | 0.00 | 0.00 | 0.00 | 85 | 1017.8 |
| 20260507144611 | 59 | 71 | 4.0 | 14.0 | 0.00 | 0.00 | 0.00 | 85 | 1017.9 |
| 20260507144111 | 59 | 74 | 4.0 | 11.0 | 0.00 | 0.00 | 0.00 | 86 | 1017.6 |
| 20260507143612 | 59 | 76 | 5.0 | 17.0 | 0.00 | 0.00 | 0.00 | 86 | 1017.5 |
| 20260507143343 | 59 | 34 | 5.0 | 17.0 | 0.00 | 0.00 | 0.00 | 86 | 1017.6 |
| 20260507142611 | 59 | 5 | 5.0 | 14.0 | 0.00 | 0.00 | 0.00 | 86 | 1017.5 |
| 20260507142110 | 59 | 155 | 5.0 | 17.0 | 0.00 | 0.00 | 0.00 | 87 | 1017.4 |
| 20260507141605 | 59 | 48 | 6.0 | 17.0 | 0.00 | 0.00 | 0.00 | 87 | 1017.3 |
| 20260507141059 | 59 | 74 | 5.0 | 15.0 | 0.00 | 0.00 | 0.00 | 87 | 1017.4 |
| 20260507140553 | 59 | 41 | 4.0 | 16.0 | 0.00 | 0.00 | 0.00 | 87 | 1017.6 |
| 20260507140047 | 59 | 95 | 5.0 | 18.0 | 0.00 | 0.00 | 0.00 | 87 | 1017.7 |
| 20260507135540 | 59 | 93 | 6.0 | 18.0 | 0.00 | 0.00 | 0.00 | 87 | 1017.6 |
| 20260507135035 | 59 | 275 | 5.0 | 14.0 | 0.00 | 0.00 | 0.00 | 87 | 1017.5 |
| 20260507134801 | 59 | 5 | 5.0 | 15.0 | 0.00 | 0.00 | 0.00 | 87 | 1017.6 |
| 20260507134022 | 59 | 80 | 4.0 | 16.0 | 0.00 | 0.00 | 0.00 | 87 | 1017.6 |
| 20260507133747 | 59 | 88 | 4.0 | 16.0 | 0.00 | 0.00 | 0.00 | 87 | 1017.7 |
| 20260507133011 | 59 | 55 | 4.0 | 10.0 | 0.00 | 0.00 | 0.00 | 87 | 1017.5 |
| 20260507132505 | 59 | 74 | 4.0 | 13.0 | 0.00 | 0.00 | 0.00 | 86 | 1017.6 |
| 20260507131959 | 60 | 49 | 5.0 | 13.0 | 0.00 | 0.00 | 0.00 | 86 | 1017.7 |
| 20260507131453 | 60 | 40 | 4.0 | 13.0 | 0.00 | 0.00 | 0.00 | 86 | 1017.9 |
| 20260507130948 | 60 | 82 | 4.0 | 13.0 | 0.00 | 0.00 | 0.00 | 85 | 1018.2 |
| 20260507130441 | 60 | 27 | 5.0 | 14.0 | 0.00 | 0.00 | 0.00 | 85 | 1017.8 |
| 20260507125935 | 60 | 19 | 5.0 | 14.0 | 0.00 | 0.00 | 0.00 | 85 | 1017.4 |
| 20260507125433 | 60 | 51 | 5.0 | 16.0 | 0.00 | 0.00 | 0.00 | 84 | 1017.3 |
| 20260507124933 | 60 | 76 | 5.0 | 16.0 | 0.00 | 0.00 | 0.00 | 84 | 1017.5 |
| 20260507124433 | 61 | 117 | 5.0 | 16.0 | 0.00 | 0.00 | 0.00 | 83 | 1017.2 |
| 20260507124204 | 61 | 57 | 4.0 | 15.0 | 0.00 | 0.00 | 0.00 | 83 | 1017.4 |
| 20260507123433 | 61 | 36 | 3.0 | 11.0 | 0.00 | 0.00 | 0.00 | 83 | 1017.2 |
| 20260507122933 | 61 | 35 | 3.0 | 11.0 | 0.00 | 0.00 | 0.00 | 83 | 1017.3 |
| 20260507122707 | 61 | 47 | 4.0 | 12.0 | 0.00 | 0.00 | 0.00 | 83 | 1017.2 |
| 20260507121933 | 61 | 9 | 4.0 | 12.0 | 0.00 | 0.00 | 0.00 | 82 | 1017.1 |
| 20260507121431 | 61 | 38 | 2.0 | 9.0 | 0.00 | 0.00 | 0.00 | 82 | 1017.1 |
| 20260507121202 | 61 | 84 | 2.0 | 12.0 | 0.00 | 0.00 | 0.00 | 82 | 1016.8 |
| 20260507115931 | 61 | 69 | 4.0 | 12.0 | 0.00 | 0.00 | 0.00 | 82 | 1016.5 |
| 20260507115431 | 62 | 141 | 5.0 | 14.0 | 0.00 | 0.00 | 0.00 | 82 | 1016.3 |
| 20260507114929 | 62 | 57 | 5.0 | 17.0 | 0.00 | 0.00 | 0.00 | 82 | 1016.1 |
| 20260507113929 | 62 | 46 | 5.0 | 14.0 | 0.00 | 0.00 | 0.00 | 82 | 1015.9 |
| 20260507113429 | 62 | 60 | 4.0 | 14.0 | 0.00 | 0.00 | 0.00 | 82 | 1016.0 |
| 20260507112925 | 62 | 5 | 3.0 | 10.0 | 0.00 | 0.00 | 0.00 | 82 | 1016.1 |
| 20260507112425 | 62 | 62 | 3.0 | 13.0 | 0.00 | 0.00 | 0.00 | 82 | 1016.0 |
| 20260507111925 | 62 | 62 | 3.0 | 13.0 | 0.00 | 0.00 | 0.00 | 82 | 1016.0 |
| 20260507111425 | 62 | 67 | 3.0 | 11.0 | 0.00 | 0.00 | 0.00 | 82 | 1015.9 |
| 20260507110925 | 62 | 68 | 4.0 | 12.0 | 0.00 | 0.00 | 0.00 | 82 | 1015.8 |
| 20260507110424 | 62 | 67 | 4.0 | 13.0 | 0.00 | 0.00 | 0.00 | 82 | 1015.8 |
| 20260507105925 | 62 | 71 | 4.0 | 13.0 | 0.00 | 0.00 | 0.00 | 82 | 1015.8 |
| 20260507105425 | 62 | 99 | 4.0 | 13.0 | 0.00 | 0.00 | 0.00 | 82 | 1015.6 |
| 20260507104925 | 62 | 46 | 3.0 | 10.0 | 0.00 | 0.00 | 0.00 | 82 | 1015.6 |
| 20260507104425 | 62 | 51 | 3.0 | 12.0 | 0.00 | 0.00 | 0.00 | 82 | 1015.7 |
| 20260507103925 | 62 | 56 | 3.0 | 12.0 | 0.00 | 0.00 | 0.00 | 81 | 1015.7 |
| 20260507103656 | 62 | 78 | 3.0 | 11.0 | 0.00 | 0.00 | 0.00 | 82 | 1015.8 |
| 20260507102925 | 62 | 78 | 4.0 | 11.0 | 0.00 | 0.00 | 0.00 | 81 | 1015.9 |
| 20260507102425 | 62 | 36 | 3.0 | 11.0 | 0.00 | 0.00 | 0.00 | 81 | 1016.0 |
| 20260507101924 | 62 | 26 | 3.0 | 11.0 | 0.00 | 0.00 | 0.00 | 82 | 1015.9 |
| 20260507101424 | 62 | 64 | 2.0 | 10.0 | 0.00 | 0.00 | 0.00 | 82 | 1015.9 |
| 20260507100925 | 62 | 95 | 2.0 | 8.0 | 0.00 | 0.00 | 0.00 | 82 | 1015.8 |
| 20260507100424 | 62 | 38 | 2.0 | 10.0 | 0.00 | 0.00 | 0.00 | 82 | 1015.7 |
| 20260507095918 | 62 | 39 | 3.0 | 10.0 | 0.00 | 0.00 | 0.00 | 82 | 1015.7 |
| 20260507095412 | 62 | 30 | 3.0 | 10.0 | 0.00 | 0.00 | 0.00 | 82 | 1015.8 |
| 20260507094912 | 62 | 74 | 3.0 | 14.0 | 0.00 | 0.00 | 0.00 | 82 | 1015.9 |
| 20260507094410 | 62 | 13 | 3.0 | 14.0 | 0.00 | 0.00 | 0.00 | 82 | 1015.6 |
| 20260507093913 | 62 | 24 | 3.0 | 10.0 | 0.00 | 0.00 | 0.00 | 82 | 1015.7 |
| 20260507093410 | 62 | 85 | 2.0 | 8.0 | 0.00 | 0.00 | 0.00 | 82 | 1015.7 |
| 20260507092911 | 62 | 64 | 2.0 | 8.0 | 0.00 | 0.00 | 0.00 | 82 | 1015.8 |
| 20260507092411 | 62 | 82 | 2.0 | 11.0 | 0.00 | 0.00 | 0.00 | 82 | 1015.8 |
| 20260507091910 | 62 | 80 | 2.0 | 11.0 | 0.00 | 0.00 | 0.00 | 82 | 1015.7 |
| 20260507091410 | 62 | 31 | 2.0 | 8.0 | 0.00 | 0.00 | 0.00 | 82 | 1015.6 |
| 20260507090911 | 62 | 68 | 3.0 | 12.0 | 0.00 | 0.00 | 0.00 | 82 | 1015.7 |
| 20260507090409 | 62 | 26 | 3.0 | 12.0 | 0.00 | 0.00 | 0.00 | 82 | 1015.8 |
| 20260507085909 | 62 | 76 | 3.0 | 9.0 | 0.00 | 0.00 | 0.00 | 82 | 1015.7 |
| 20260507085409 | 62 | 28 | 3.0 | 9.0 | 0.00 | 0.00 | 0.00 | 82 | 1015.6 |
| 20260507084911 | 62 | 49 | 3.0 | 10.0 | 0.00 | 0.00 | 0.00 | 82 | 1015.6 |
| 20260507084639 | 62 | 34 | 3.0 | 10.0 | 0.00 | 0.00 | 0.00 | 82 | 1015.8 |
| 20260507083907 | 63 | 20 | 3.0 | 9.0 | 0.00 | 0.00 | 0.00 | 82 | 1015.7 |
| 20260507083404 | 63 | 68 | 2.0 | 9.0 | 0.00 | 0.00 | 0.00 | 82 | 1015.8 |
| 20260507082903 | 63 | 79 | 3.0 | 11.0 | 0.00 | 0.00 | 0.00 | 82 | 1015.7 |
| 20260507082357 | 63 | 80 | 3.0 | 11.0 | 0.00 | 0.00 | 0.00 | 82 | 1015.7 |
| 20260507081852 | 63 | 84 | 3.0 | 11.0 | 0.00 | 0.00 | 0.00 | 82 | 1015.7 |
| 20260507081346 | 63 | 35 | 2.0 | 9.0 | 0.00 | 0.00 | 0.00 | 82 | 1015.9 |
| 20260507080840 | 63 | 16 | 1.0 | 7.0 | 0.00 | 0.00 | 0.00 | 82 | 1016.1 |
| 20260507080334 | 63 | 58 | 2.0 | 8.0 | 0.00 | 0.00 | 0.00 | 82 | 1015.9 |
| 20260507075828 | 63 | 53 | 2.0 | 11.0 | 0.00 | 0.00 | 0.00 | 82 | 1015.9 |
| 20260507075322 | 63 | 41 | 3.0 | 11.0 | 0.00 | 0.00 | 0.00 | 82 | 1015.9 |
| 20260507074815 | 63 | 45 | 3.0 | 11.0 | 0.00 | 0.00 | 0.00 | 82 | 1015.7 |
| 20260507074310 | 63 | 128 | 3.0 | 11.0 | 0.00 | 0.00 | 0.00 | 82 | 1015.8 |
| 20260507073808 | 63 | 63 | 3.0 | 11.0 | 0.00 | 0.00 | 0.00 | 82 | 1015.9 |
| 20260507073308 | 63 | 41 | 2.0 | 11.0 | 0.00 | 0.00 | 0.00 | 82 | 1016.1 |
| 20260507072307 | 63 | 48 | 3.0 | 11.0 | 0.00 | 0.00 | 0.00 | 82 | 1016.2 |
| 20260507071806 | 63 | 22 | 3.0 | 10.0 | 0.00 | 0.00 | 0.00 | 82 | 1016.1 |
| 20260507071304 | 63 | 49 | 3.0 | 9.0 | 0.00 | 0.00 | 0.00 | 82 | 1016.1 |
| 20260507070807 | 63 | 56 | 3.0 | 9.0 | 0.00 | 0.00 | 0.00 | 82 | 1016.2 |
| 20260507070307 | 63 | 78 | 3.0 | 8.0 | 0.00 | 0.00 | 0.00 | 82 | 1016.2 |
| 20260507070033 | 63 | 61 | 3.0 | 10.0 | 0.00 | 0.00 | 0.00 | 82 | 1016.1 |
| 20260507065301 | 63 | 60 | 2.0 | 8.0 | 0.00 | 0.00 | 0.00 | 82 | 1016.2 |
| 20260507064759 | 63 | 66 | 2.0 | 8.0 | 0.00 | 0.00 | 0.00 | 82 | 1016.1 |
| 20260507064300 | 63 | 62 | 2.0 | 8.0 | 0.00 | 0.00 | 0.00 | 82 | 1016.0 |
| 20260507063758 | 63 | 65 | 2.0 | 4.0 | 0.00 | 0.00 | 0.00 | 82 | 1016.0 |
| 20260507063256 | 63 | 66 | 2.0 | 4.0 | 0.00 | 0.00 | 0.00 | 82 | 1016.1 |
| 20260507063026 | 63 | 66 | 2.0 | 8.0 | 0.00 | 0.00 | 0.00 | 82 | 1016.1 |
| 20260507062255 | 63 | 77 | 3.0 | 9.0 | 0.00 | 0.00 | 0.00 | 82 | 1016.0 |
| 20260507061754 | 63 | 94 | 3.0 | 9.0 | 0.00 | 0.00 | 0.00 | 82 | 1015.9 |
| 20260507061254 | 63 | 63 | 2.0 | 6.0 | 0.00 | 0.00 | 0.00 | 82 | 1015.9 |
| 20260507060254 | 63 | 45 | 3.0 | 13.0 | 0.00 | 0.00 | 0.00 | 82 | 1015.5 |
| 20260507055752 | 63 | 74 | 3.0 | 9.0 | 0.00 | 0.00 | 0.00 | 82 | 1015.4 |
| 20260507055250 | 63 | 78 | 3.0 | 11.0 | 0.00 | 0.00 | 0.00 | 82 | 1015.4 |
| 20260507054748 | 63 | 25 | 4.0 | 11.0 | 0.00 | 0.00 | 0.00 | 82 | 1015.4 |
| 20260507054246 | 63 | 23 | 3.0 | 10.0 | 0.00 | 0.00 | 0.00 | 82 | 1015.2 |
| 20260507053746 | 63 | 57 | 3.0 | 9.0 | 0.00 | 0.00 | 0.00 | 82 | 1015.2 |
| 20260507053246 | 63 | 43 | 3.0 | 12.0 | 0.00 | 0.00 | 0.00 | 82 | 1015.0 |
| 20260507052746 | 63 | 0 | 2.0 | 12.0 | 0.00 | 0.00 | 0.00 | 82 | 1014.9 |
| 20260507052246 | 63 | 0 | 3.0 | 12.0 | 0.00 | 0.00 | 0.00 | 83 | 1015.0 |
| 20260507051744 | 63 | 111 | 3.0 | 12.0 | 0.00 | 0.00 | 0.00 | 83 | 1014.8 |
| 20260507051244 | 63 | 47 | 4.0 | 15.0 | 0.00 | 0.00 | 0.00 | 83 | 1014.7 |
| 20260507050744 | 64 | 61 | 4.0 | 15.0 | 0.00 | 0.00 | 0.00 | 83 | 1014.6 |
| 20260507050243 | 64 | 50 | 4.0 | 13.0 | 0.00 | 0.00 | 0.00 | 83 | 1014.8 |
| 20260507050014 | 64 | 59 | 4.0 | 13.0 | 0.00 | 0.00 | 0.00 | 83 | 1014.7 |
| 20260507045244 | 64 | 50 | 3.0 | 9.0 | 0.00 | 0.00 | 0.00 | 83 | 1014.9 |
| 20260507045014 | 64 | 25 | 3.0 | 9.0 | 0.00 | 0.00 | 0.00 | 83 | 1014.8 |
| 20260507044514 | 64 | 57 | 3.0 | 11.0 | 0.00 | 0.00 | 0.00 | 83 | 1014.6 |
| 20260507043743 | 64 | 78 | 4.0 | 11.0 | 0.00 | 0.00 | 0.00 | 83 | 1014.7 |
| 20260507043237 | 64 | 61 | 4.0 | 14.0 | 0.00 | 0.00 | 0.00 | 83 | 1015.0 |
| 20260507042731 | 64 | 76 | 4.0 | 14.0 | 0.00 | 0.00 | 0.00 | 83 | 1015.0 |
| 20260507042225 | 64 | 55 | 4.0 | 13.0 | 0.00 | 0.00 | 0.00 | 83 | 1015.0 |
| 20260507041719 | 64 | 72 | 4.0 | 15.0 | 0.00 | 0.00 | 0.00 | 83 | 1014.9 |
| 20260507041213 | 64 | 44 | 3.0 | 15.0 | 0.00 | 0.00 | 0.00 | 83 | 1014.8 |
| 20260507040707 | 64 | 50 | 3.0 | 9.0 | 0.00 | 0.00 | 0.00 | 83 | 1014.6 |
| 20260507040202 | 64 | 46 | 3.0 | 9.0 | 0.00 | 0.00 | 0.00 | 83 | 1014.5 |
| 20260507035655 | 64 | 336 | 2.0 | 9.0 | 0.00 | 0.00 | 0.00 | 83 | 1014.3 |
| 20260507035149 | 64 | 46 | 3.0 | 11.0 | 0.00 | 0.00 | 0.00 | 83 | 1014.3 |
| 20260507034642 | 64 | 11 | 2.0 | 11.0 | 0.00 | 0.00 | 0.00 | 82 | 1014.2 |
| 20260507034137 | 64 | 355 | 1.0 | 6.0 | 0.00 | 0.00 | 0.00 | 82 | 1014.3 |
| 20260507033631 | 64 | 53 | 1.0 | 9.0 | 0.00 | 0.00 | 0.00 | 82 | 1014.1 |
| 20260507033125 | 64 | 57 | 1.0 | 9.0 | 0.00 | 0.00 | 0.00 | 82 | 1014.1 |
| 20260507032619 | 64 | 32 | 2.0 | 10.0 | 0.00 | 0.00 | 0.00 | 82 | 1014.0 |
| 20260507031607 | 64 | 41 | 3.0 | 14.0 | 0.00 | 0.00 | 0.00 | 82 | 1013.9 |
| 20260507031101 | 64 | 343 | 2.0 | 14.0 | 0.00 | 0.00 | 0.00 | 82 | 1014.0 |
| 20260507030555 | 64 | 51 | 2.0 | 11.0 | 0.00 | 0.00 | 0.00 | 82 | 1014.0 |
| 20260507030048 | 64 | 79 | 2.0 | 11.0 | 0.00 | 0.00 | 0.00 | 82 | 1014.0 |
| 20260507025543 | 64 | 303 | 2.0 | 9.0 | 0.00 | 0.00 | 0.00 | 82 | 1014.1 |
| 20260507025036 | 64 | 33 | 3.0 | 11.0 | 0.00 | 0.00 | 0.00 | 82 | 1014.0 |
| 20260507024530 | 64 | 44 | 2.0 | 11.0 | 0.00 | 0.00 | 0.00 | 81 | 1014.0 |
| 20260507024025 | 64 | 283 | 2.0 | 11.0 | 0.00 | 0.00 | 0.00 | 81 | 1013.9 |
| 20260507023751 | 65 | 44 | 2.0 | 11.0 | 0.00 | 0.00 | 0.00 | 81 | 1014.0 |
| 20260507023244 | 65 | 30 | 2.0 | 13.0 | 0.00 | 0.00 | 0.00 | 81 | 1013.9 |
| 20260507022738 | 65 | 26 | 2.0 | 13.0 | 0.00 | 0.00 | 0.00 | 81 | 1013.8 |
| 20260507022001 | 65 | 32 | 2.0 | 10.0 | 0.00 | 0.00 | 0.00 | 81 | 1013.9 |
| 20260507021455 | 65 | 355 | 3.0 | 13.0 | 0.00 | 0.00 | 0.00 | 81 | 1013.8 |
| 20260507020949 | 65 | 69 | 3.0 | 13.0 | 0.00 | 0.00 | 0.00 | 81 | 1013.8 |
| 20260507020713 | 65 | 15 | 2.0 | 8.0 | 0.00 | 0.00 | 0.00 | 80 | 1013.8 |
| 20260507015937 | 65 | 29 | 2.0 | 9.0 | 0.00 | 0.00 | 0.00 | 80 | 1013.6 |
| 20260507015431 | 65 | 311 | 2.0 | 11.0 | 0.00 | 0.00 | 0.00 | 80 | 1013.2 |
| 20260507014925 | 65 | 355 | 3.0 | 11.0 | 0.00 | 0.00 | 0.00 | 80 | 1013.2 |
| 20260507014419 | 65 | 51 | 3.0 | 10.0 | 0.00 | 0.00 | 0.00 | 80 | 1012.9 |
| 20260507013407 | 66 | 52 | 4.0 | 16.0 | 0.00 | 0.00 | 0.00 | 80 | 1013.0 |
| 20260507013132 | 66 | 17 | 4.0 | 16.0 | 0.00 | 0.00 | 0.00 | 79 | 1012.9 |
| 20260507012626 | 66 | 44 | 3.0 | 11.0 | 0.00 | 0.00 | 0.00 | 79 | 1013.0 |
| 20260507011851 | 67 | 28 | 3.0 | 12.0 | 0.00 | 0.00 | 0.00 | 79 | 1013.1 |
| 20260507011351 | 67 | 27 | 3.0 | 12.0 | 0.00 | 0.00 | 0.00 | 79 | 1013.2 |
| 20260507011122 | 67 | 34 | 1.0 | 8.0 | 0.00 | 0.00 | 0.00 | 78 | 1012.9 |
| 20260507010354 | 67 | 26 | 2.0 | 10.0 | 0.00 | 0.00 | 0.00 | 78 | 1013.0 |
| 20260507005851 | 67 | 344 | 4.0 | 13.0 | 0.00 | 0.00 | 0.00 | 78 | 1012.6 |
| 20260507005349 | 68 | 37 | 4.0 | 14.0 | 0.00 | 0.00 | 0.00 | 78 | 1012.5 |
| 20260507004347 | 68 | 51 | 4.0 | 14.0 | 0.00 | 0.00 | 0.00 | 77 | 1012.5 |
| 20260507003847 | 68 | 38 | 5.0 | 14.0 | 0.00 | 0.00 | 0.00 | 77 | 1012.6 |
| 20260507003347 | 69 | 29 | 4.0 | 14.0 | 0.00 | 0.00 | 0.00 | 76 | 1012.5 |
| 20260507002847 | 69 | 5 | 4.0 | 14.0 | 0.00 | 0.00 | 0.00 | 76 | 1012.2 |
| 20260507002347 | 70 | 17 | 3.0 | 14.0 | 0.00 | 0.00 | 0.00 | 75 | 1012.5 |
| 20260507001843 | 70 | 54 | 2.0 | 9.0 | 0.00 | 0.00 | 0.00 | 75 | 1012.5 |
| 20260507001615 | 70 | 49 | 3.0 | 9.0 | 0.00 | 0.00 | 0.00 | 75 | 1012.4 |
| 20260507001115 | 71 | 76 | 3.0 | 10.0 | 0.00 | 0.00 | 0.00 | 75 | 1012.1 |
| 20260507000343 | 71 | 30 | 3.0 | 11.0 | 0.00 | 0.00 | 0.00 | 75 | 1011.9 |
| 20260506235842 | 71 | 34 | 4.0 | 11.0 | 0.00 | 0.00 | 0.00 | 75 | 1012.1 |
| 20260506235342 | 71 | 53 | 4.0 | 12.0 | 0.00 | 0.00 | 0.00 | 74 | 1011.8 |
| 20260506234843 | 72 | 53 | 3.0 | 12.0 | 0.00 | 0.00 | 0.00 | 74 | 1011.7 |
| 20260506234343 | 72 | 74 | 3.0 | 11.0 | 0.00 | 0.00 | 0.00 | 74 | 1011.8 |
| 20260506233843 | 72 | 51 | 3.0 | 12.0 | 0.00 | 0.00 | 0.00 | 73 | 1011.6 |
| 20260506233343 | 72 | 67 | 4.0 | 12.0 | 0.00 | 0.00 | 0.00 | 73 | 1011.6 |
| 20260506232842 | 73 | 37 | 5.0 | 11.0 | 0.00 | 0.00 | 0.00 | 72 | 1011.5 |
| 20260506232342 | 74 | 79 | 4.0 | 11.0 | 0.00 | 0.00 | 0.00 | 72 | 1011.3 |
| 20260506231842 | 74 | 36 | 4.0 | 13.0 | 0.00 | 0.00 | 0.00 | 71 | 1011.2 |
| 20260506231613 | 75 | 37 | 4.0 | 13.0 | 0.00 | 0.00 | 0.00 | 70 | 1011.3 |
| 20260506231114 | 76 | 82 | 4.0 | 10.0 | 0.00 | 0.00 | 0.00 | 70 | 1011.2 |
| 20260506230341 | 76 | 34 | 4.0 | 12.0 | 0.00 | 0.00 | 0.00 | 69 | 1011.3 |
| 20260506225841 | 77 | 344 | 4.0 | 12.0 | 0.00 | 0.00 | 0.00 | 68 | 1011.1 |
| 20260506225341 | 78 | 119 | 5.0 | 14.0 | 0.00 | 0.00 | 0.00 | 67 | 1011.1 |
| 20260506224841 | 79 | 53 | 5.0 | 14.0 | 0.00 | 0.00 | 0.00 | 66 | 1011.0 |
| 20260506224339 | 80 | 43 | 4.0 | 13.0 | 0.00 | 0.00 | 0.00 | 66 | 1010.9 |
| 20260506223839 | 81 | 351 | 5.0 | 13.0 | 0.00 | 0.00 | 0.00 | 67 | 1010.9 |
| 20260506223338 | 81 | 81 | 5.0 | 14.0 | 0.00 | 0.00 | 0.00 | 69 | 1010.7 |
| 20260506222841 | 82 | 5 | 4.0 | 14.0 | 0.00 | 0.00 | 0.00 | 69 | 1010.7 |
| 20260506222341 | 82 | 36 | 4.0 | 12.0 | 0.00 | 0.00 | 0.00 | 69 | 1010.6 |
| 20260506221835 | 81 | 106 | 5.0 | 12.0 | 0.00 | 0.00 | 0.00 | 70 | 1010.5 |
| 20260506221329 | 81 | 40 | 5.0 | 14.0 | 0.00 | 0.00 | 0.00 | 69 | 1010.5 |
| 20260506220823 | 82 | 49 | 5.0 | 14.0 | 0.00 | 0.00 | 0.00 | 69 | 1010.5 |
| 20260506215813 | 82 | 54 | 5.0 | 14.0 | 0.00 | 0.00 | 0.00 | 70 | 1010.5 |
| 20260506215538 | 83 | 17 | 5.0 | 14.0 | 0.00 | 0.00 | 0.00 | 69 | 1010.5 |
| 20260506214759 | 83 | 52 | 4.0 | 13.0 | 0.00 | 0.00 | 0.00 | 68 | 1010.5 |
| 20260506214252 | 83 | 81 | 4.0 | 13.0 | 0.00 | 0.00 | 0.00 | 70 | 1010.4 |
| 20260506213746 | 82 | 95 | 4.0 | 13.0 | 0.00 | 0.00 | 0.00 | 70 | 1010.5 |
| 20260506213240 | 82 | 54 | 4.0 | 13.0 | 0.00 | 0.00 | 0.00 | 70 | 1010.5 |
| 20260506212734 | 82 | 12 | 4.0 | 13.0 | 0.00 | 0.00 | 0.00 | 70 | 1010.6 |
| 20260506212228 | 83 | 42 | 4.0 | 10.0 | 0.00 | 0.00 | 0.00 | 70 | 1010.6 |
| 20260506211953 | 83 | 57 | 4.0 | 12.0 | 0.00 | 0.00 | 0.00 | 69 | 1010.6 |
| 20260506211216 | 85 | 29 | 3.0 | 12.0 | 0.00 | 0.00 | 0.00 | 67 | 1010.4 |
| 20260506210710 | 86 | 61 | 2.0 | 6.0 | 0.00 | 0.00 | 0.00 | 68 | 1010.3 |
| 20260506210205 | 85 | 65 | 3.0 | 6.0 | 0.00 | 0.00 | 0.00 | 67 | 1010.4 |
| 20260506205658 | 85 | 67 | 2.0 | 5.0 | 0.00 | 0.00 | 0.00 | 68 | 1010.5 |
| 20260506205424 | 85 | 76 | 1.0 | 5.0 | 0.00 | 0.00 | 0.00 | 67 | 1010.5 |
| 20260506204646 | 85 | 81 | 1.0 | 4.0 | 0.00 | 0.00 | 0.00 | 67 | 1010.5 |
| 20260506204141 | 85 | 81 | 1.0 | 3.0 | 0.00 | 0.00 | 0.00 | 68 | 1010.5 |
| 20260506203635 | 85 | 81 | 2.0 | 5.0 | 0.00 | 0.00 | 0.00 | 67 | 1010.6 |
| 20260506203128 | 86 | 80 | 2.0 | 5.0 | 0.00 | 0.00 | 0.00 | 66 | 1010.6 |
| 20260506202622 | 86 | 81 | 2.0 | 5.0 | 0.00 | 0.00 | 0.00 | 66 | 1010.6 |
| 20260506202116 | 87 | 107 | 2.0 | 7.0 | 0.00 | 0.00 | 0.00 | 66 | 1010.7 |
| 20260506201611 | 86 | 109 | 1.0 | 7.0 | 0.00 | 0.00 | 0.00 | 66 | 1010.7 |
| 20260506201105 | 86 | 225 | 1.0 | 4.0 | 0.00 | 0.00 | 0.00 | 66 | 1010.7 |
| 20260506200559 | 86 | 226 | 1.0 | 4.0 | 0.00 | 0.00 | 0.00 | 66 | 1010.8 |
| 20260506200053 | 86 | 229 | 1.0 | 4.0 | 0.00 | 0.00 | 0.00 | 67 | 1010.9 |
| 20260506195546 | 85 | 238 | 1.0 | 4.0 | 0.00 | 0.00 | 0.00 | 67 | 1011.0 |
| 20260506195041 | 85 | 239 | 1.0 | 4.0 | 0.00 | 0.00 | 0.00 | 67 | 1011.1 |
| 20260506194534 | 86 | 240 | 2.0 | 4.0 | 0.00 | 0.00 | 0.00 | 68 | 1011.1 |
| 20260506194034 | 85 | 241 | 2.0 | 4.0 | 0.00 | 0.00 | 0.00 | 68 | 1011.1 |
| 20260506193522 | 85 | 230 | 2.0 | 5.0 | 0.00 | 0.00 | 0.00 | 66 | 1011.2 |
| 20260506193016 | 85 | 234 | 1.0 | 6.0 | 0.00 | 0.00 | 0.00 | 69 | 1011.1 |
| 20260506192510 | 84 | 100 | 2.0 | 7.0 | 0.00 | 0.00 | 0.00 | 69 | 1011.1 |
| 20260506192004 | 84 | 100 | 2.0 | 7.0 | 0.00 | 0.00 | 0.00 | 69 | 1011.1 |
| 20260506191459 | 84 | 88 | 2.0 | 7.0 | 0.00 | 0.00 | 0.00 | 69 | 1011.2 |
| 20260506190953 | 83 | 165 | 2.0 | 7.0 | 0.00 | 0.00 | 0.00 | 70 | 1011.2 |
| 20260506190447 | 83 | 114 | 2.0 | 6.0 | 0.00 | 0.00 | 0.00 | 73 | 1011.3 |
| 20260506185942 | 83 | 157 | 2.0 | 6.0 | 0.00 | 0.00 | 0.00 | 72 | 1011.4 |
| 20260506185435 | 83 | 115 | 2.0 | 7.0 | 0.00 | 0.00 | 0.00 | 71 | 1011.4 |
| 20260506184929 | 83 | 155 | 2.0 | 6.0 | 0.00 | 0.00 | 0.00 | 71 | 1011.4 |
| 20260506184422 | 83 | 126 | 2.0 | 7.0 | 0.00 | 0.00 | 0.00 | 74 | 1011.4 |
| 20260506184149 | 83 | 138 | 2.0 | 7.0 | 0.00 | 0.00 | 0.00 | 75 | 1011.6 |
| 20260506183411 | 82 | 139 | 3.0 | 7.0 | 0.00 | 0.00 | 0.00 | 76 | 1011.6 |
| 20260506182358 | 81 | 119 | 3.0 | 7.0 | 0.00 | 0.00 | 0.00 | 76 | 1011.8 |
| 20260506181854 | 81 | 117 | 2.0 | 7.0 | 0.00 | 0.00 | 0.00 | 76 | 1011.8 |
| 20260506181354 | 81 | 113 | 2.0 | 6.0 | 0.00 | 0.00 | 0.00 | 77 | 1012.0 |
| 20260506180854 | 80 | 105 | 2.0 | 6.0 | 0.00 | 0.00 | 0.00 | 78 | 1011.8 |